Location: Ariel
(45.9570°N, 122.5700°W)
Time: 13:01:43
(UTC-07:00)

Transit 4A - Pass Details

Date: 25 July 2019
Orbit: 863 x 981 km, 66.8° (Epoch: 17 August)

Event Time Altitude Azimuth Distance (km) Brightness Sun altitude
Rises 10:36:03 0° 325° (NW) 3,670 10.7 47.8°
Reaches altitude 10° 10:38:39 10° 324° (NW) 2,708 10.1 48.3°
Maximum altitude 10:44:57 74° 241° (WSW) 984 8.8 49.2°
Drops below altitude 10° 10:51:01 10° 157° (SSE) 2,614 10.9 50.2°
Sets 10:53:29 0° 156° (SSE) 3,534 11.4 50.5°
